Wind_Speed
12 12 12 11 10 9 9 8 8 7 6 6 6 6 5 4 3 2 2 2 2 3 3 4 4 5 6 7 7 7 7 8 8 9 9 9 10 10 11 12 12 12 12
10 10 11 11 10 9 9 8 8 7 6 6 6 6 6 5 4 3 3 3 3 4 4 4 5 5 6 6 7 8 8 8 8 9 9 9 10 12 12 13 13 14 14
9 9 10 10 10 9 9 8 8 7 7 7 6 6 6 6 5 4 5 5 5 4 5 5 5 5 6 6 7 8 9 9 10 10 10 10 11 11 12 13 14 15 15
8 8 9 9 8 8 8 8 7 7 6 6 6 6 6 6 6 6 6 6 6 5 5 5 5 6 6 6 7 7 8 9 10 11 11 12 12 12 13 14 15 15 16
7 8 8 9 8 8 8 8 7 7 6 6 6 7 7 7 7 7 8 8 7 7 7 7 7 7 7 7 8 8 9 9 10 10 11 11 12 13 13 14 15 16 17
7 8 8 8 8 8 8 8 8 7 7 6 7 7 7 8 8 8 8 9 9 9 8 8 8 8 8 8 8 9 10 11 11 11 11 11 12 12 13 14 15 16 17
7 7 8 9 9 8 8 8 7 7 7 7 7 8 8 8 8 9 9 10 10 10 10 10 9 9 9 9 10 10 10 11 12 12 12 13 13 14 14 14 15 16 16
7 8 8 9 9 9 8 8 7 7 7 8 8 8 9 9 9 9 10 11 11 11 11 11 11 10 10 11 11 11 11 11 12 13 13 13 14 14 15 16 16 17 17
8 9 9 9 10 10 9 9 8 8 8 8 9 9 9 10 10 10 11 12 12 12 12 12 12 11 11 11 11 12 12 12 12 13 14 15 15 15 16 16 17 18 19
9 9 9 9 10 10 10 9 9 9 9 9 10 10 10 11 11 11 12 13 13 13 13 14 13 13 13 12 12 13 13 13 13 14 14 15 16 16 17 18 18 19 20
10 10 10 10 11 11 10 10 9 9 9 10 11 11 11 12 12 13 14 14 14 14 14 14 14 13 13 13 13 14 14 14 15 15 15 16 17 18 18 19 19 19 20
12 12 12 12 12 11 11 11 11 11 11 12 12 12 13 13 14 14 15 15 15 15 14 14 14 14 14 14 14 14 15 15 16 16 17 17 18 18 18 18 19 19 20
13 13 13 13 12 12 12 12 12 12 13 14 14 14 14 15 15 16 16 16 16 15 14 14 14 14 15 15 15 16 16 17 17 17 18 18 18 18 18 19 20 20 20
14 14 13 13 13 13 13 13 13 14 15 15 16 16 16 16 17 17 17 17 17 17 16 16 15 15 16 16 17 17 18 18 18 18 19 19 19 19 20 20 20 21 21
14 15 15 15 16 16 15 15 15 15 16 17 17 17 17 17 18 18 18 17 18 18 19 18 17 17 17 18 18 18 18 19 19 20 20 20 20 20 20 21 21 21 21
16 16 16 17 18 18 18 17 17 17 17 17 17 18 18 18 18 19 20 19 19 20 18 18 18 18 19 19 19 19 19 20 20 20 20 20 20 21 21 21 22 22 22
18 18 18 18 18 19 19 20 19 19 19 19 19 19 20 20 20 20 20 20 20 20 19 19 19 20 20 20 20 20 20 21 21 21 21 21 21 21 21 21 21 21 21
20 20 20 20 20 21 22 21 22 21 21 21 21 21 22 22 22 22 21 22 22 21 21 21 21 21 21 20 20 20 20 20 21 21 21 21 22 23 23 22 22 22 21
22 22 22 22 22 22 23 24 23 23 23 23 23 23 24 24 24 23 23 23 23 23 22 22 22 23 23 22 22 21 22 22 22 22 23 23 23 23 23 23 23 23 23
23 24 24 25 25 25 25 25 25 25 24 24 24 25 25 25 25 25 25 25 24 24 23 23 22 22 23 23 23 23 24 24 24 24 25 25 25 25 25 25 24 23 23
26 26 26 27 27 26 26 26 26 26 25 25 26 25 25 26 26 27 26 26 26 25 24 24 24 24 24 24 24 25 26 26 26 26 27 26 26 26 26 25 25 25 24
27 27 27 27 27 27 27 27 27 26 26 27 28 27 27 28 28 29 28 27 26 26 25 25 25 25 26 26 26 26 27 27 28 28 28 28 28 28 27 26 26 26 25
29 29 29 28 28 28 28 28 27 26 27 28 28 28 29 30 30 30 29 28 27 26 26 25 26 26 27 27 27 27 27 28 28 28 28 28 28 28 28 28 27 26 26
31 30 30 30 30 30 30 28 28 29 29 29 29 30 30 30 31 31 31 30 29 27 27 27 28 28 28 28 28 28 28 29 29 29 29 29 29 29 28 27 27 26 26
32 32 32 31 31 31 31 30 30 30 30 29 29 30 30 31 31 32 31 31 31 30 29 29 29 30 30 30 30 30 30 30 30 30 30 29 29 29 29 28 28 27 27
32 32 32 32 32 32 32 32 32 31 31 31 31 30 31 32 32 32 32 32 31 30 30 30 31 31 31 31 31 31 31 31 31 31 31 30 29 29 28 28 27 26 26
Wind_Direction
42 43 44 45 50 53 53 53 56 61 61 59 57 53 47 41 29 22 11 360 339 327 317 303 290 279 275 268 261 259 259 259 258 262 263 258 259 260 262 263 262 261 262
33 36 38 40 42 43 46 48 49 48 44 44 44 43 39 32 20 5 355 349 344 337 327 308 300 284 279 275 270 266 266 266 267 268 268 263 262 263 263 263 264 262 263
22 26 29 30 33 34 37 39 39 37 33 32 30 27 23 18 16 7 353 343 333 330 322 311 305 301 292 286 277 271 267 271 271 269 268 268 268 268 268 267 266 265 266
11 14 15 14 16 19 21 25 28 28 25 21 18 14 10 7 5 358 350 342 336 328 321 322 312 300 300 293 287 282 275 275 278 275 273 272 272 272 272 271 270 268 268
356 359 0 2 1 3 6 10 11 13 12 7 3 3 4 3 358 353 348 342 336 330 323 318 313 306 300 294 288 285 281 280 278 279 280 279 278 277 276 276 273 272 272
342 347 346 344 346 347 353 357 358 359 359 358 355 352 353 353 350 345 341 337 334 329 323 318 312 308 302 295 292 291 286 281 279 278 280 281 282 283 283 282 281 277 275
329 336 337 335 332 332 339 343 345 346 347 348 346 342 339 336 336 336 335 331 329 325 321 317 313 311 308 303 296 293 291 287 283 280 281 282 283 283 283 285 284 284 283
312 322 323 321 321 318 321 331 331 335 338 339 338 335 333 330 328 329 329 327 325 323 319 316 312 309 308 306 301 299 294 291 288 285 284 283 283 283 284 284 284 285 285
300 305 309 310 307 307 309 316 315 321 326 328 328 327 327 326 326 323 321 321 320 319 317 314 311 308 305 304 302 299 297 294 292 289 286 284 284 283 284 285 285 285 284
285 292 301 301 301 300 300 304 304 308 314 319 323 323 320 321 320 319 317 318 317 316 314 312 307 304 301 299 299 299 298 296 295 293 290 286 286 286 286 286 286 286 285
281 287 294 294 298 299 298 299 302 305 308 313 317 318 318 316 318 315 314 315 315 313 311 309 306 302 301 298 295 295 296 295 294 295 293 292 291 288 288 288 287 286 285
280 284 287 290 293 295 295 294 295 297 300 305 310 313 314 316 315 312 310 311 311 310 308 306 304 302 301 297 293 293 294 294 295 295 295 294 293 292 291 291 291 290 288
280 285 281 283 286 289 290 289 291 294 297 301 305 309 311 312 313 309 306 306 306 307 307 305 303 301 299 295 292 293 293 293 294 296 297 295 293 292 292 291 290 291 290
277 282 280 278 281 284 286 287 289 293 293 295 299 303 306 308 311 310 305 304 305 302 304 303 300 300 299 296 293 292 293 293 293 295 296 295 294 291 291 291 291 292 291
276 276 275 277 280 281 285 288 293 295 291 291 294 299 304 306 308 310 307 305 303 301 301 298 297 299 300 298 295 293 293 293 294 294 294 294 294 292 291 290 291 292 292
276 274 275 275 278 281 283 286 290 292 293 292 291 295 299 301 304 305 306 302 298 301 300 298 297 296 296 296 294 293 294 295 295 295 294 292 293 295 294 293 293 292 291
276 275 274 275 275 277 281 283 289 293 293 291 290 291 293 296 299 301 303 302 302 302 299 299 297 295 294 295 294 293 293 294 295 295 295 293 294 294 296 295 294 293 291
275 278 275 274 276 278 280 283 288 289 290 288 286 286 289 292 294 296 298 298 298 298 298 296 294 293 292 292 294 296 296 296 294 295 296 295 294 294 294 294 293 293 292
271 272 272 272 275 278 280 282 285 286 287 287 286 286 287 289 290 291 293 295 295 295 295 294 294 292 292 291 292 292 296 296 295 295 295 295 295 295 295 293 292 291 290
269 270 270 270 272 275 279 281 283 284 285 285 285 285 287 288 288 289 289 292 292 291 291 293 294 294 294 292 292 291 295 295 294 294 293 293 291 292 291 290 290 290 289
267 269 269 269 270 273 277 281 281 281 281 283 283 283 284 285 287 288 289 290 290 289 289 290 292 294 295 294 292 292 294 294 294 293 292 291 289 289 288 287 288 288 287
267 268 269 270 270 273 275 279 280 279 280 283 282 283 283 283 285 288 289 290 289 287 288 290 291 293 295 294 293 293 293 293 293 293 292 291 289 288 287 285 286 286 286
267 268 268 269 270 273 275 278 279 279 279 281 282 284 283 281 284 287 289 290 288 286 286 289 291 292 293 294 293 294 293 292 293 293 293 291 289 288 286 285 285 285 284
264 266 267 267 268 272 275 276 277 280 282 283 282 282 283 285 285 286 287 287 287 285 284 287 288 290 292 295 294 292 291 292 292 292 293 292 290 287 286 284 284 284 283
264 265 266 268 270 270 270 273 276 277 280 281 282 283 285 286 287 285 285 287 287 287 285 286 288 291 292 292 292 291 289 290 291 290 290 290 289 286 285 285 284 283 283
263 265 266 268 269 269 269 272 275 278 280 281 283 282 283 285 286 287 286 287 287 285 285 286 288 290 291 291 291 290 289 288 288 288 288 288 288 288 286 285 284 284 284
Height
5906 5905 5903 5901 5900 5899 5897 5896 5895 5894 5893 5892 5891 5891 5890 5889 5889 5888 5887 5886 5886 5885 5884 5884 5884 5883 5883 5882 5882 5882 5882 5882 5882 5882 5882 5882 5881 5881 5881 5881 5881 5881 5880
5908 5906 5905 5903 5902 5901 5899 5898 5897 5896 5895 5893 5892 5891 5891 5890 5889 5888 5887 5886 5885 5885 5884 5883 5882 5882 5881 5881 5881 5880 5880 5880 5880 5880 5880 5879 5880 5879 5879 5878 5878 5878 5878
5910 5908 5907 5905 5904 5902 5901 5899 5898 5897 5896 5895 5893 5892 5891 5890 5889 5888 5887 5886 5885 5884 5883 5882 5881 5880 5880 5879 5879 5878 5878 5878 5878 5878 5878 5877 5877 5876 5876 5875 5875 5875 5874
5911 5909 5908 5906 5905 5903 5902 5900 5899 5897 5896 5895 5894 5893 5892 5890 5889 5888 5887 5886 5884 5883 5882 5881 5880 5879 5879 5878 5877 5877 5876 5876 5875 5875 5874 5874 5874 5873 5873 5872 5871 5871 5870
5911 5910 5908 5907 5905 5904 5903 5901 5900 5898 5897 5895 5894 5893 5892 5890 5889 5888 5887 5885 5884 5882 5881 5880 5879 5878 5877 5876 5875 5875 5874 5873 5873 5872 5872 5871 5871 5870 5869 5869 5868 5867 5866
5911 5910 5908 5907 5906 5904 5903 5901 5900 5898 5897 5895 5894 5893 5892 5890 5889 5887 5886 5885 5883 5882 5880 5879 5877 5876 5874 5874 5873 5872 5871 5871 5870 5870 5869 5868 5868 5867 5866 5865 5864 5863 5863
5910 5909 5908 5907 5905 5904 5902 5901 5900 5898 5897 5895 5894 5892 5891 5889 5888 5886 5885 5884 5882 5880 5879 5877 5875 5874 5872 5871 5870 5870 5869 5868 5867 5866 5866 5865 5865 5864 5863 5862 5861 5860 5858
5909 5908 5907 5906 5904 5903 5902 5900 5899 5898 5896 5895 5893 5891 5890 5888 5886 5885 5883 5882 5880 5879 5877 5875 5874 5872 5870 5869 5868 5867 5866 5865 5864 5863 5862 5862 5861 5860 5859 5858 5857 5856 5855
5908 5907 5906 5904 5903 5902 5900 5899 5898 5897 5895 5894 5892 5890 5888 5887 5885 5883 5882 5880 5878 5877 5875 5873 5872 5870 5868 5867 5866 5864 5863 5862 5861 5860 5859 5858 5857 5856 5855 5854 5853 5852 5851
5906 5905 5904 5903 5901 5900 5898 5897 5896 5895 5894 5892 5891 5889 5887 5885 5883 5881 5880 5877 5876 5874 5872 5871 5869 5867 5866 5864 5863 5862 5860 5859 5857 5856 5855 5854 5853 5852 5851 5850 5849 5847 5846
5903 5903 5902 5901 5899 5898 5896 5895 5894 5893 5892 5891 5889 5887 5885 5883 5880 5879 5876 5875 5873 5871 5869 5867 5866 5864 5862 5861 5860 5858 5857 5856 5854 5853 5852 5850 5849 5848 5846 5845 5844 5842 5841
5900 5900 5899 5898 5897 5895 5894 5893 5892 5891 5890 5888 5887 5885 5883 5880 5878 5875 5873 5871 5870 5868 5866 5864 5862 5861 5859 5858 5856 5855 5854 5852 5851 5849 5848 5846 5845 5843 5842 5840 5839 5837 5836
5897 5896 5895 5895 5894 5892 5891 5890 5889 5888 5887 5885 5884 5882 5880 5878 5875 5872 5870 5868 5866 5864 5862 5861 5859 5857 5855 5854 5852 5851 5850 5848 5847 5845 5843 5842 5840 5839 5837 5835 5834 5832 5830
5893 5892 5891 5891 5890 5889 5888 5887 5886 5885 5883 5882 5880 5879 5877 5874 5872 5869 5866 5864 5863 5861 5859 5857 5855 5853 5851 5850 5848 5847 5845 5844 5842 5840 5839 5837 5835 5834 5832 5830 5829 5827 5825
5888 5888 5887 5886 5886 5885 5884 5883 5882 5880 5879 5878 5876 5875 5873 5871 5868 5865 5863 5860 5859 5857 5855 5853 5851 5849 5848 5846 5844 5842 5841 5839 5837 5835 5834 5832 5830 5828 5827 5825 5823 5821 5819
5883 5883 5882 5882 5881 5880 5880 5879 5877 5876 5874 5873 5872 5870 5869 5867 5864 5862 5859 5856 5855 5852 5850 5849 5847 5845 5843 5842 5840 5838 5836 5834 5832 5830 5828 5826 5824 5823 5821 5819 5817 5815 5813
5878 5878 5877 5877 5876 5875 5874 5873 5872 5871 5870 5868 5867 5866 5864 5862 5860 5858 5855 5853 5851 5849 5847 5845 5843 5841 5839 5837 5835 5832 5831 5829 5827 5825 5823 5821 5819 5817 5815 5813 5811 5809 5807
5873 5872 5871 5871 5870 5869 5868 5867 5867 5866 5864 5863 5861 5860 5859 5857 5855 5852 5850 5848 5846 5844 5841 5839 5837 5835 5833 5831 5829 5827 5825 5823 5821 5819 5817 5815 5813 5811 5809 5807 5805 5803 5801
5867 5866 5866 5865 5864 5863 5862 5862 5861 5860 5858 5857 5855 5854 5853 5851 5849 5847 5845 5842 5840 5838 5836 5833 5831 5829 5828 5825 5823 5821 5819 5817 5815 5813 5811 5809 5807 5805 5803 5801 5799 5797 5795
5860 5859 5859 5858 5858 5857 5856 5855 5854 5853 5852 5850 5849 5847 5846 5844 5842 5840 5838 5836 5834 5832 5830 5828 5826 5824 5822 5819 5817 5815 5813 5811 5809 5807 5805 5803 5801 5799 5797 5795 5793 5791 5789
5852 5852 5852 5851 5850 5850 5849 5848 5847 5845 5844 5843 5841 5840 5838 5837 5836 5834 5832 5830 5828 5825 5824 5822 5820 5817 5815 5813 5811 5809 5806 5804 5802 5800 5798 5796 5794 5792 5790 5788 5786 5784 5782
5844 5844 5844 5843 5843 5842 5841 5840 5839 5838 5836 5835 5834 5832 5831 5830 5829 5827 5825 5822 5820 5818 5816 5814 5813 5810 5808 5806 5803 5801 5799 5796 5794 5792 5790 5788 5786 5784 5782 5780 5778 5777 5775
5836 5836 5836 5835 5835 5834 5834 5833 5831 5830 5828 5827 5826 5824 5823 5822 5820 5819 5817 5815 5812 5810 5809 5807 5805 5803 5801 5798 5795 5793 5791 5788 5786 5784 5782 5780 5778 5776 5774 5772 5771 5769 5767
5827 5827 5827 5827 5827 5826 5825 5824 5823 5822 5820 5819 5818 5816 5815 5813 5812 5810 5808 5807 5805 5803 5801 5799 5797 5795 5792 5790 5787 5785 5783 5780 5778 5776 5774 5772 5769 5768 5766 5764 5763 5761 5759
5818 5818 5818 5818 5817 5817 5817 5816 5815 5813 5812 5810 5809 5807 5806 5805 5803 5801 5799 5798 5797 5794 5793 5791 5789 5786 5784 5782 5780 5777 5775 5772 5770 5767 5765 5763 5761 5759 5757 5756 5754 5753 5751
5808 5808 5808 5808 5808 5808 5808 5807 5806 5804 5803 5801 5800 5799 5797 5796 5794 5792 5791 5789 5788 5786 5784 5782 5780 5777 5775 5773 5771 5768 5766 5763 5761 5758 5756 5755 5753 5751 5749 5747 5746 5745 5743